TimeEDT,TemperatureF,Dew PointF,Humidity,Sea Level PressureIn,VisibilityMPH,Wind Direction,Wind SpeedMPH,Gust SpeedMPH,PrecipitationIn,Events,Conditions,WindDirDegrees,DateUTC
12:53 AM,45.0,28.0,52,29.72,10.0,WSW,8.1,-,N/A,,Clear,250,2012-11-02 04:53:00
1:53 AM,45.0,28.9,53,29.72,10.0,Variable,6.9,-,N/A,,Overcast,0,2012-11-02 05:53:00
2:53 AM,43.0,30.0,60,29.73,10.0,Calm,Calm,-,N/A,,Partly Cloudy,0,2012-11-02 06:53:00
3:53 AM,39.0,30.9,73,29.72,10.0,Calm,Calm,-,N/A,,Clear,0,2012-11-02 07:53:00
4:53 AM,41.0,30.9,67,29.71,10.0,Calm,Calm,-,N/A,,Clear,0,2012-11-02 08:53:00
5:53 AM,41.0,32.0,70,29.71,10.0,Calm,Calm,-,N/A,,Mostly Cloudy,0,2012-11-02 09:53:00
6:53 AM,43.0,32.0,65,29.72,10.0,Variable,3.5,-,N/A,,Overcast,0,2012-11-02 10:53:00
7:53 AM,44.1,30.9,60,29.73,10.0,WSW,5.8,-,N/A,,Overcast,240,2012-11-02 11:53:00
8:53 AM,44.1,30.9,60,29.73,10.0,SW,9.2,-,N/A,,Overcast,230,2012-11-02 12:53:00
9:53 AM,44.1,33.1,65,29.75,10.0,Variable,4.6,-,0.00,,Overcast,0,2012-11-02 13:53:00
10:13 AM,44.6,33.8,66,29.74,10.0,Variable,4.6,-,N/A,,Overcast,0,2012-11-02 14:13:00
10:53 AM,46.0,33.1,61,29.75,10.0,WNW,10.4,-,N/A,,Mostly Cloudy,300,2012-11-02 14:53:00
11:05 AM,46.4,32.0,57,29.74,10.0,WNW,9.2,17.3,N/A,,Overcast,290,2012-11-02 15:05:00
11:53 AM,48.9,30.0,48,29.76,10.0,NW,9.2,27.6,N/A,,Partly Cloudy,310,2012-11-02 15:53:00
12:53 PM,48.9,28.9,46,29.75,10.0,West,9.2,21.9,N/A,,Mostly Cloudy,270,2012-11-02 16:53:00
1:53 PM,48.9,30.0,48,29.75,10.0,WNW,13.8,21.9,N/A,,Scattered Clouds,300,2012-11-02 17:53:00
2:53 PM,48.0,28.9,48,29.76,10.0,WNW,9.2,-,N/A,,Overcast,290,2012-11-02 18:53:00
3:53 PM,48.0,28.0,46,29.78,10.0,NW,11.5,19.6,N/A,,Overcast,320,2012-11-02 19:53:00
5:53 PM,46.0,30.0,54,29.82,10.0,Variable,4.6,-,N/A,,Overcast,0,2012-11-02 21:53:00
7:53 PM,44.1,30.0,58,29.87,10.0,Variable,4.6,-,N/A,,Mostly Cloudy,0,2012-11-02 23:53:00
8:53 PM,44.1,28.9,55,29.88,10.0,Calm,Calm,-,N/A,,Overcast,0,2012-11-03 00:53:00
9:53 PM,44.1,28.9,55,29.89,10.0,Variable,6.9,17.3,N/A,,Overcast,0,2012-11-03 01:53:00
10:53 PM,44.1,28.0,53,29.90,10.0,West,8.1,17.3,N/A,,Overcast,280,2012-11-03 02:53:00
11:53 PM,44.1,28.0,53,29.89,10.0,Variable,5.8,-,N/A,,Overcast,0,2012-11-03 03:53:00